SHT14P EGLL-EGJJ

Flight info

Callsign SHT14P
Flight time 0h 37m
Altitude 24000
Route GASGU N866 SAM N63 LELNA
Aircraft A320/M-SDE3FGHIRWY/LB1

Departure

Time 2026-05-05 18:52
Airport London Heathrow Airport (EGLL)

Arrival

Time 2026-05-05 19:29
Airport Jersey Airport (EGJJ)
Time Latitude Longitude Altitude Speed Heading
2026-05-05 18:25 51.46938 -0.47184 77 ft 0 kts 90°
2026-05-05 18:38 51.46938 -0.47185 87 ft 0 kts 90°
2026-05-05 18:39 51.46938 -0.47184 87 ft 0 kts 90°
2026-05-05 18:41 51.46938 -0.47199 90 ft 2 kts 89°
2026-05-05 18:41 51.46938 -0.47225 87 ft 2 kts 91°
2026-05-05 18:42 51.46939 -0.47254 87 ft 2 kts 92°
2026-05-05 18:42 51.46940 -0.47280 87 ft 2 kts 95°
2026-05-05 18:42 51.46941 -0.47306 87 ft 2 kts 101°
2026-05-05 18:43 51.46945 -0.47332 89 ft 2 kts 116°
2026-05-05 18:43 51.46955 -0.47353 88 ft 2 kts 173°
2026-05-05 18:43 51.46964 -0.47354 89 ft 1 kts 178°
2026-05-05 18:46 51.46954 -0.47354 88 ft 4 kts 178°
2026-05-05 18:46 51.46905 -0.47352 87 ft 10 kts 179°
2026-05-05 18:46 51.46827 -0.47351 87 ft 13 kts 180°
2026-05-05 18:46 51.46746 -0.47394 87 ft 14 kts 253°
2026-05-05 18:47 51.46745 -0.47580 87 ft 19 kts 270°
2026-05-05 18:47 51.46744 -0.47809 87 ft 22 kts 269°
2026-05-05 18:47 51.46743 -0.48051 87 ft 16 kts 269°
2026-05-05 18:47 51.46742 -0.48101 87 ft 0 kts 269°
2026-05-05 18:48 51.46742 -0.48139 87 ft 10 kts 269°
2026-05-05 18:48 51.46742 -0.48264 87 ft 13 kts 270°
2026-05-05 18:49 51.46741 -0.48425 87 ft 13 kts 263°
2026-05-05 18:49 51.46661 -0.48469 87 ft 15 kts 180°
2026-05-05 18:49 51.46553 -0.48470 88 ft 16 kts 180°
2026-05-05 18:49 51.46480 -0.48451 90 ft 9 kts 131°
2026-05-05 18:50 51.46477 -0.48379 90 ft 0 kts 89°
2026-05-05 18:50 51.46477 -0.48377 90 ft 1 kts 89°
2026-05-05 18:51 51.46477 -0.48321 89 ft 15 kts 89°
2026-05-05 18:51 51.46481 -0.47904 87 ft 70 kts 90°
2026-05-05 18:51 51.46484 -0.46768 91 ft 130 kts 90°
2026-05-05 18:51 51.46503 -0.45086 310 ft 155 kts 86°
2026-05-05 18:52 51.46523 -0.43356 986 ft 156 kts 87°
2026-05-05 18:52 51.46485 -0.41572 1506 ft 173 kts 103°
2026-05-05 18:52 51.45754 -0.39890 1860 ft 198 kts 134°
2026-05-05 18:52 51.44764 -0.38171 2185 ft 222 kts 125°
2026-05-05 18:53 51.43827 -0.36038 2650 ft 247 kts 122°
2026-05-05 18:53 51.42622 -0.33958 3363 ft 264 kts 143°
2026-05-05 18:53 51.40907 -0.32834 4142 ft 272 kts 172°
2026-05-05 18:53 51.39023 -0.33109 4927 ft 276 kts 200°
2026-05-05 18:54 51.37389 -0.34694 5706 ft 277 kts 224°
2026-05-05 18:54 51.35971 -0.36787 6481 ft 279 kts 224°
2026-05-05 18:54 51.34536 -0.38892 7225 ft 281 kts 224°
2026-05-05 18:54 51.33084 -0.41006 7993 ft 284 kts 224°
2026-05-05 18:55 51.31626 -0.43158 8775 ft 286 kts 228°
2026-05-05 18:55 51.30456 -0.45724 9576 ft 288 kts 244°
2026-05-05 18:55 51.29767 -0.48723 10333 ft 290 kts 256°
2026-05-05 18:55 51.29218 -0.51857 11053 ft 297 kts 256°
2026-05-05 18:56 51.28642 -0.55090 11687 ft 307 kts 255°
2026-05-05 18:56 51.28038 -0.58415 12336 ft 316 kts 255°
2026-05-05 18:56 51.27393 -0.61810 12994 ft 324 kts 253°
2026-05-05 18:56 51.26714 -0.65296 13669 ft 331 kts 253°
2026-05-05 18:57 51.26017 -0.68840 14285 ft 338 kts 253°
2026-05-05 18:57 51.25305 -0.72449 14901 ft 344 kts 253°
2026-05-05 18:57 51.24525 -0.76116 15377 ft 354 kts 246°
2026-05-05 18:57 51.23145 -0.79410 15885 ft 362 kts 226°
2026-05-05 18:58 51.21156 -0.81904 16403 ft 366 kts 214°
2026-05-05 18:58 51.19047 -0.84198 16925 ft 369 kts 214°
2026-05-05 18:58 51.16910 -0.86497 17455 ft 372 kts 214°
2026-05-05 18:58 51.14753 -0.88806 18002 ft 375 kts 214°
2026-05-05 18:59 51.12576 -0.91130 18508 ft 378 kts 214°
2026-05-05 18:59 51.10385 -0.93470 18983 ft 380 kts 214°
2026-05-05 18:59 51.08182 -0.95827 19471 ft 383 kts 215°
2026-05-05 18:59 51.05970 -0.98201 19963 ft 385 kts 215°
2026-05-05 19:00 51.03748 -1.00590 20463 ft 387 kts 215°
2026-05-05 19:00 51.01516 -1.02987 20970 ft 389 kts 215°
2026-05-05 19:00 50.99265 -1.05400 21497 ft 391 kts 215°
2026-05-05 19:00 50.97007 -1.07819 22024 ft 394 kts 215°
2026-05-05 19:01 50.94759 -1.10223 22560 ft 396 kts 215°
2026-05-05 19:01 50.92427 -1.12707 22890 ft 400 kts 215°
2026-05-05 19:01 50.90141 -1.15136 22949 ft 402 kts 215°
2026-05-05 19:01 50.87819 -1.17597 22935 ft 403 kts 215°
2026-05-05 19:02 50.85483 -1.20076 22934 ft 403 kts 215°
2026-05-05 19:02 50.83156 -1.22551 22946 ft 403 kts 215°
2026-05-05 19:02 50.80833 -1.25022 22945 ft 403 kts 215°
2026-05-05 19:02 50.79257 -1.26694 22940 ft 403 kts 215°
2026-05-05 19:03 50.76924 -1.29160 22946 ft 404 kts 215°
2026-05-05 19:03 50.74588 -1.31623 22944 ft 404 kts 215°
2026-05-05 19:03 50.72249 -1.34085 22942 ft 404 kts 215°
2026-05-05 19:03 50.69941 -1.36515 22946 ft 404 kts 215°
2026-05-05 19:04 50.67601 -1.38982 22942 ft 405 kts 215°
2026-05-05 19:04 50.65259 -1.41448 22940 ft 405 kts 214°
2026-05-05 19:04 50.62915 -1.43910 22944 ft 405 kts 214°
2026-05-05 19:04 50.60569 -1.46370 22942 ft 405 kts 214°
2026-05-05 19:05 50.58225 -1.48829 22936 ft 405 kts 214°
2026-05-05 19:05 50.55847 -1.51317 22940 ft 406 kts 214°
2026-05-05 19:05 50.53524 -1.53740 22938 ft 406 kts 214°
2026-05-05 19:05 50.51140 -1.56221 22936 ft 406 kts 214°
2026-05-05 19:06 50.48816 -1.58641 22937 ft 406 kts 214°
2026-05-05 19:06 50.46462 -1.61096 22939 ft 406 kts 214°
2026-05-05 19:06 50.44105 -1.63554 22940 ft 406 kts 214°
2026-05-05 19:06 50.41753 -1.66000 22940 ft 407 kts 214°
2026-05-05 19:07 50.39395 -1.68446 22938 ft 407 kts 214°
2026-05-05 19:07 50.37030 -1.70893 22940 ft 407 kts 214°
2026-05-05 19:07 50.34667 -1.73329 22939 ft 407 kts 214°
2026-05-05 19:07 50.32301 -1.75764 22938 ft 407 kts 214°
2026-05-05 19:08 50.29939 -1.78200 22890 ft 404 kts 214°
2026-05-05 19:08 50.27618 -1.80594 22648 ft 395 kts 214°
2026-05-05 19:08 50.25348 -1.82935 22405 ft 388 kts 214°
2026-05-05 19:08 50.23102 -1.85248 22162 ft 386 kts 214°
2026-05-05 19:09 50.20865 -1.87549 21924 ft 384 kts 214°
2026-05-05 19:09 50.18638 -1.89833 21685 ft 383 kts 214°
2026-05-05 19:09 50.16410 -1.92116 21449 ft 383 kts 214°
2026-05-05 19:09 50.14187 -1.94391 21217 ft 382 kts 213°
2026-05-05 19:10 50.11969 -1.96659 20988 ft 381 kts 213°
2026-05-05 19:10 50.09757 -1.98921 20750 ft 380 kts 213°
2026-05-05 19:10 50.07548 -2.01175 20524 ft 379 kts 213°
2026-05-05 19:10 50.05343 -2.03419 20297 ft 378 kts 213°
2026-05-05 19:11 50.03144 -2.05658 20066 ft 377 kts 213°
2026-05-05 19:11 50.00894 -2.07740 19901 ft 376 kts 205°
2026-05-05 19:11 49.98439 -2.09108 19358 ft 376 kts 192°
2026-05-05 19:11 49.95846 -2.09571 18842 ft 374 kts 179°
2026-05-05 19:12 49.93274 -2.09146 18335 ft 371 kts 167°
2026-05-05 19:12 49.90752 -2.08342 17785 ft 369 kts 167°
2026-05-05 19:12 49.88246 -2.07554 17280 ft 366 kts 167°
2026-05-05 19:12 49.85763 -2.06784 16781 ft 363 kts 167°
2026-05-05 19:13 49.83296 -2.06026 16282 ft 360 kts 167°
2026-05-05 19:13 49.80842 -2.05278 15783 ft 358 kts 167°
2026-05-05 19:13 49.78411 -2.04537 15285 ft 356 kts 167°
2026-05-05 19:13 49.76017 -2.03806 14798 ft 354 kts 168°
2026-05-05 19:14 49.73604 -2.03068 14307 ft 353 kts 168°
2026-05-05 19:14 49.71200 -2.02349 13816 ft 351 kts 171°
2026-05-05 19:14 49.68766 -2.02152 13289 ft 350 kts 181°
2026-05-05 19:14 49.66340 -2.02290 12802 ft 347 kts 181°
2026-05-05 19:15 49.63934 -2.02426 12317 ft 345 kts 181°
2026-05-05 19:15 49.61547 -2.02556 11837 ft 342 kts 181°
2026-05-05 19:15 49.59177 -2.02681 11364 ft 340 kts 182°
2026-05-05 19:15 49.56823 -2.02804 10889 ft 337 kts 182°
2026-05-05 19:16 49.54486 -2.02927 10423 ft 335 kts 182°
2026-05-05 19:16 49.52171 -2.03048 10171 ft 327 kts 182°
2026-05-05 19:16 49.49941 -2.03164 10051 ft 315 kts 182°
2026-05-05 19:16 49.47858 -2.03719 9930 ft 303 kts 203°
2026-05-05 19:17 49.46105 -2.05388 9808 ft 296 kts 219°
2026-05-05 19:17 49.44504 -2.07373 9677 ft 295 kts 220°
2026-05-05 19:17 49.42925 -2.09377 9543 ft 295 kts 220°
2026-05-05 19:17 49.41345 -2.11385 9366 ft 295 kts 221°
2026-05-05 19:18 49.39767 -2.13389 9036 ft 293 kts 220°
2026-05-05 19:18 49.38198 -2.15383 8646 ft 294 kts 221°
2026-05-05 19:18 49.36714 -2.17550 8183 ft 296 kts 229°
2026-05-05 19:18 49.35383 -2.19967 7718 ft 296 kts 238°
2026-05-05 19:19 49.34621 -2.22796 7296 ft 281 kts 258°
2026-05-05 19:19 49.34192 -2.25667 7005 ft 274 kts 261°
2026-05-05 19:19 49.34033 -2.28540 6701 ft 269 kts 277°
2026-05-05 19:19 49.34228 -2.31373 6411 ft 266 kts 279°
2026-05-05 19:20 49.34094 -2.34199 6092 ft 270 kts 253°
2026-05-05 19:20 49.33141 -2.36663 5861 ft 269 kts 228°
2026-05-05 19:20 49.31649 -2.38298 5731 ft 262 kts 202°
2026-05-05 19:20 49.29900 -2.38858 5524 ft 254 kts 177°
2026-05-05 19:21 49.28234 -2.38282 5369 ft 240 kts 147°
2026-05-05 19:21 49.27085 -2.36614 5216 ft 221 kts 112°
2026-05-05 19:21 49.26743 -2.34440 5062 ft 207 kts 86°
2026-05-05 19:21 49.26797 -2.32246 4915 ft 206 kts 81°
2026-05-05 19:22 49.26903 -2.30069 4761 ft 205 kts 81°
2026-05-05 19:22 49.27018 -2.27900 4605 ft 204 kts 81°
2026-05-05 19:22 49.27142 -2.25673 4453 ft 224 kts 81°
2026-05-05 19:22 49.27288 -2.23234 4290 ft 233 kts 81°
2026-05-05 19:23 49.27439 -2.20754 4137 ft 234 kts 81°
2026-05-05 19:23 49.27590 -2.18276 3980 ft 232 kts 81°
2026-05-05 19:23 49.27738 -2.15839 3755 ft 228 kts 81°
2026-05-05 19:23 49.27880 -2.13457 3527 ft 222 kts 81°
2026-05-05 19:24 49.28016 -2.11122 3295 ft 218 kts 81°
2026-05-05 19:24 49.28147 -2.08837 3094 ft 212 kts 81°
2026-05-05 19:24 49.28271 -2.06642 3005 ft 202 kts 81°
2026-05-05 19:24 49.28387 -2.04510 3009 ft 201 kts 81°
2026-05-05 19:25 49.28373 -2.02389 3000 ft 198 kts 99°
2026-05-05 19:25 49.27746 -2.00546 2862 ft 198 kts 129°
2026-05-05 19:25 49.26601 -1.99446 2715 ft 194 kts 158°
2026-05-05 19:25 49.25298 -1.99173 2692 ft 197 kts 182°
2026-05-05 19:26 49.23933 -1.99724 2644 ft 203 kts 208°
2026-05-05 19:26 49.22854 -2.01028 2529 ft 200 kts 233°
2026-05-05 19:26 49.22212 -2.02863 2335 ft 193 kts 259°
2026-05-05 19:26 49.22005 -2.04853 2099 ft 186 kts 268°
2026-05-05 19:27 49.21851 -2.06711 1881 ft 163 kts 268°
2026-05-05 19:27 49.21719 -2.08345 1625 ft 150 kts 269°
2026-05-05 19:27 49.21595 -2.09857 1420 ft 138 kts 269°
2026-05-05 19:27 49.21476 -2.11330 1262 ft 141 kts 268°
2026-05-05 19:28 49.21352 -2.12807 1075 ft 142 kts 268°
2026-05-05 19:28 49.21225 -2.14356 861 ft 147 kts 267°
2026-05-05 19:28 49.21097 -2.15921 666 ft 148 kts 266°
2026-05-05 19:28 49.20968 -2.17444 449 ft 143 kts 266°
2026-05-05 19:29 49.20847 -2.18928 287 ft 133 kts 268°
2026-05-05 19:29 49.20761 -2.19999 288 ft 60 kts 262°
2026-05-05 19:29 49.20726 -2.20422 284 ft 37 kts 262°
2026-05-05 19:29 49.20699 -2.20665 283 ft 14 kts 250°
2026-05-05 19:30 49.20630 -2.20647 284 ft 14 kts 104°
2026-05-05 19:30 49.20615 -2.20480 284 ft 17 kts 102°
2026-05-05 19:30 49.20579 -2.20296 284 ft 19 kts 107°
2026-05-05 19:30 49.20540 -2.20094 284 ft 21 kts 107°
2026-05-05 19:31 49.20511 -2.19954 284 ft 10 kts 115°
2026-05-05 19:31 49.20448 -2.19914 284 ft 10 kts 158°
2026-05-05 19:31 49.20436 -2.19816 284 ft 11 kts 85°
2026-05-05 19:31 49.20443 -2.19702 284 ft 7 kts 82°
2026-05-05 19:32 49.20478 -2.19677 284 ft 1 kts 360°
2026-05-05 19:32 49.20494 -2.19676 284 ft 2 kts
2026-05-05 19:32 49.20498 -2.19676 284 ft 0 kts